This is the latest recevied weather packets stored in our database for station/object SR9NSK-1. If no packets are shown the sender has not sent any weather packets the latest 1 day(s).
| Time | Temp. | Humidity | Pressure | Rain* | Wind** | Luminosity | Snow |
|---|---|---|---|---|---|---|---|
| 1778008371 | 12.22° C | 47% | 869.9 hPa | - | 5.36 m/s, 142° | - | - |
| 1778008251 | 12.22° C | 47% | 869.9 hPa | - | 4.92 m/s, 135° | - | - |
| 1778008131 | 12.22° C | 47% | 869.9 hPa | - | 5.81 m/s, 131° | - | - |
| 1778008011 | 12.22° C | 47% | 869.9 hPa | - | 5.81 m/s, 135° | - | - |
| 1778007891 | 12.22° C | 47% | 869.9 hPa | - | 5.36 m/s, 142° | - | - |
| 1778007771 | 12.22° C | 47% | 869.9 hPa | - | 5.36 m/s, 140° | - | - |
| 1778007651 | 12.22° C | 47% | 869.9 hPa | - | 5.36 m/s, 139° | - | - |
| 1778007531 | 12.22° C | 47% | 869.9 hPa | - | 6.26 m/s, 144° | - | - |
| 1778007411 | 12.22° C | 47% | 869.9 hPa | - | 6.26 m/s, 150° | - | - |
| 1778007291 | 12.22° C | 46% | 870 hPa | - | 5.81 m/s, 144° | - | - |
| 1778007169 | 12.22° C | 46% | 869.9 hPa | - | 7.15 m/s, 151° | - | - |
| 1778007049 | 12.22° C | 46% | 869.9 hPa | - | 6.71 m/s, 151° | - | - |
| 1778006929 | 12.22° C | 46% | 869.9 hPa | - | 6.71 m/s, 150° | - | - |
| 1778006809 | 12.22° C | 46% | 870 hPa | - | 6.26 m/s, 153° | - | - |
| 1778006690 | 12.22° C | 46% | 870 hPa | - | 6.26 m/s, 154° | - | - |
| 1778006558 | 12.22° C | 46% | 870 hPa | - | 5.81 m/s, 157° | - | - |
| 1778006438 | 12.22° C | 46% | 870.1 hPa | - | 4.47 m/s, 161° | - | - |
| 1778006318 | 12.78° C | 46% | 870.1 hPa | - | 4.92 m/s, 152° | - | - |
| 1778006198 | 12.78° C | 46% | 870.1 hPa | - | 5.36 m/s, 141° | - | - |
| 1778006077 | 12.78° C | 46% | 870.1 hPa | - | 4.92 m/s, 141° | - | - |
| 1778005955 | 12.78° C | 45% | 870 hPa | - | 6.26 m/s, 154° | - | - |
| 1778005835 | 12.78° C | 45% | 870 hPa | - | 5.81 m/s, 149° | - | - |
| 1778005715 | 12.78° C | 45% | 870.1 hPa | - | 5.36 m/s, 146° | - | - |
| 1778005595 | 12.78° C | 45% | 870.1 hPa | - | 5.36 m/s, 155° | - | - |
| 1778005475 | 12.78° C | 45% | 870.1 hPa | - | 4.02 m/s, 146° | - | - |
* Rain since midnight (hover to see other rain measurements)
** Current wind speed in m/s (hover to see current wind gust speed)